Location: Chateh
(58.6667°N, 118.6000°W)
Time: 06:55:09
(UTC+00:00)

PCSat - Pass Details

Date: 07 December 2023
Orbit: 784 x 792 km, 67.0° (Epoch: 04 March)

Event Time Altitude Azimuth Distance (km) Brightness Sun altitude
Exits shadow 13:08:14 59° 238° (WSW) 912 9.5 -24.0°
Maximum altitude 13:09:18 84° 319° (NW) 801 9.4 -23.9°
Drops below altitude 10° 13:14:44 10° 48° (NE) 2,364 12.6 -23.2°
Sets 13:17:10 0° 49° (NE) 3,297 13.4 -22.8°
